[[{"header":{"parameterUnit":"m.s-1","parameterCategory":1,"la1":30.2991,"la2":30.254,"lo1":-89.0895,"lo2":-89.0444,"dy":0.0017,"dx":0.0017,"nx":28,"ny":28,"refTime":"2024-06-29T03:00:00:Z","depth":0,"parameterNumber":2,"parameterNumberName":"U-component_of_WINDS"},"data":[0,0,0,0,0,0,0,0,0,0,0,0,0,0,0,0,0,0,0,0,0,0,0,0,0,0,0,0,0,0,0,0,0,0,0,0,0,0,0,0,0,0,0,0,0,0,0,0,0,0,0,0,0,0,0,0,0,0,1.0374,1.0375,0,1.0474,1.0475,1.0476,1.0538,1.0538,1.0539,1.0539,1.0634,1.0636,1.0638,0,0,0,0,0,0,0,0,0,0,0,0,0,1.0227,1.0229,1.0374,1.0375,1.0376,1.0474,1.0475,1.0477,1.0538,1.0538,1.0539,1.0539,1.0633,1.0636,1.0638,0,0,0,0,0,0,0,0,0,0,0,0,0,1.0305,1.023,1.0373,1.0419,1.0424,1.0474,1.0475,1.0477,1.0538,1.0538,1.0539,1.0539,1.0632,1.0635,1.0639,1.0648,0,0,1.0649,1.065,0,0,0,0,0,0,0,0,1.03,1.031,1.0411,1.0416,1.0422,1.0494,1.0458,1.0534,1.0538,1.0494,1.0539,1.054,1.0586,1.0593,1.0611,1.0653,1.0657,1.0649,1.0651,1.0652,1.0653,0,0,0,0,0,0,0,1.0295,1.0306,1.0413,1.0412,1.0419,1.0431,1.0443,1.0473,1.0536,1.0498,1.0503,1.0514,1.0589,1.0608,1.0614,1.0658,1.0649,1.0652,1.0654,1.0655,1.0712,1.0711,0,0,0,0,0,0,1.0284,1.0301,1.041,1.0416,1.0361,1.0434,1.0447,1.047,1.0536,1.0547,1.0514,1.0517,1.0602,1.061,1.0617,1.0632,1.0652,1.0655,1.0657,1.0712,1.0711,1.0711,0,0,0,0,0,0,1.028,1.0293,1.0406,1.036,1.0376,1.0436,1.0462,1.0472,1.049,1.0548,1.0558,1.0521,1.0602,1.0612,1.064,1.0636,1.0657,1.066,1.0713,1.0712,1.0711,1.0662,0,0,0,0,0,0,1.0276,1.0291,1.0298,1.036,1.0378,1.043,1.0461,1.0474,1.0497,1.0502,1.0558,1.0567,1.0604,1.0635,1.0644,1.0641,1.0662,1.0713,1.0712,1.0711,1.0664,1.066,1.0656,0,0,0,0,0,1.027,1.0278,1.0298,1.031,1.0388,1.043,1.044,1.0483,1.0496,1.0502,1.0538,1.0566,1.0635,1.0638,1.0648,1.0646,1.0714,1.0713,1.0712,1.0666,1.0661,1.0656,0,0,0,0,0,0,1.0211,1.0287,1.031,1.0339,1.0377,1.044,1.0448,1.0476,1.051,1.0513,1.0563,1.0575,1.0598,1.0625,1.0626,1.0658,1.0677,1.0678,1.064,1.0635,1.0631,1.0623,1.0665,0,0,0,0,0,1.0202,1.0232,1.0296,1.0315,1.0334,1.0388,1.0408,1.0438,1.0479,1.0495,1.0534,1.0571,1.0601,1.0619,1.065,1.0669,1.0681,1.0672,1.0668,1.0664,1.0664,1.0674,1.067,1.0707,1.0707,1.0708,0,0,1.0182,1.0227,1.0243,1.0305,1.0339,1.0366,1.0401,1.0429,1.0449,1.0499,1.0528,1.0557,1.0601,1.0624,1.0636,1.0647,1.0657,1.0663,1.066,1.0661,1.0672,1.0669,1.0666,1.0707,1.0707,1.0707,0,0,1.016,1.0199,1.0219,1.0252,1.0304,1.0339,1.0344,1.0402,1.0425,1.0455,1.0493,1.0516,1.0567,1.0597,1.0618,1.0607,1.0632,1.0616,1.0593,1.0602,1.0599,1.0597,1.0591,1.0588,1.0615,1.0615,1.0615,0,1.0128,1.0175,1.0224,1.0251,1.0275,1.0324,1.0343,1.0372,1.0429,1.0444,1.0457,1.0522,1.0555,1.0584,1.0582,1.0598,1.0603,1.0609,1.0596,1.0594,1.0593,1.0587,1.0585,1.0613,1.0613,1.0613,1.0614,0,1.0132,1.0163,1.0172,1.023,1.0256,1.0278,1.0328,1.0348,1.0376,1.0409,1.0438,1.048,1.0519,1.0529,1.0556,1.0562,1.0567,1.0587,1.0607,1.0586,1.0582,1.058,1.0609,1.061,1.0611,1.0611,0,0,1.0075,1.016,1.0163,1.0189,1.0249,1.0272,1.0295,1.0337,1.0352,1.039,1.0409,1.0451,1.047,1.0494,1.0524,1.0533,1.0519,1.0552,1.0553,1.0543,1.0526,1.0509,1.0507,1.0537,1.0537,1.0536,1.0522,0,1.0061,1.0108,1.0153,1.0183,1.0211,1.0257,1.0277,1.0314,1.0346,1.0372,1.0406,1.0435,1.0458,1.0473,1.0483,1.0518,1.0516,1.052,1.0552,1.0552,1.0538,1.0505,1.0488,1.0472,1.0521,1.052,1.052,0,1.0051,1.0089,1.0122,1.0179,1.0193,1.021,1.0251,1.0276,1.0319,1.0341,1.0368,1.04,1.0424,1.0443,1.0475,1.0476,1.0492,1.0511,1.0511,1.0514,1.0534,1.0505,1.0468,1.0465,1.0519,1.0519,1.0519,0,1.0004,1.0063,1.0091,1.0112,1.0179,1.019,1.0218,1.0262,1.0283,1.0318,1.0332,1.0368,1.0387,1.0413,1.0453,1.0463,1.048,1.0502,1.0496,1.0495,1.0496,1.0495,1.0459,1.0509,1.0509,1.0509,1.0509,0,0.9982,1.0,1.0071,1.0087,1.0108,1.0159,1.0177,1.0208,1.0246,1.0268,1.0309,1.0327,1.0381,1.0404,1.0436,1.0456,1.0465,1.0481,1.0489,1.0477,1.0474,1.0486,1.0488,1.0508,1.0509,1.0509,1.0509,0,0.9933,0.9981,1.0014,1.0076,1.0092,1.0104,1.0155,1.0171,1.0206,1.0232,1.0241,1.0293,1.0324,1.0367,1.041,1.0431,1.0445,1.0459,1.0432,1.0436,1.0427,1.0427,1.0396,1.0394,1.0446,1.0446,1.0445,0,0.9916,0.9931,0.9995,1.0014,1.0041,1.007,1.0093,1.0143,1.0164,1.0213,1.0223,1.0257,1.0287,1.0332,1.0372,1.0405,1.0418,1.0406,1.0423,1.041,1.0416,1.0414,1.0415,1.04,1.04,1.0399,1.0398,0,0.9879,0.9902,0.9935,0.9976,1.0002,1.0036,1.0072,1.0084,1.014,1.0162,1.0195,1.0218,1.0263,1.0295,1.0333,1.0358,1.0386,1.0393,1.0393,1.0379,1.0362,1.037,1.0418,1.0393,1.0393,1.0394,1.0394,1.0394,0.9844,0.9859,0.9906,0.9941,0.9974,1.0006,1.0024,1.0061,1.009,1.0132,1.0159,1.019,1.023,1.0284,1.0309,1.0332,1.0343,1.0344,1.0344,1.0342,1.0337,1.036,1.0339,1.0339,1.0339,1.0339,1.034,0,0.9807,0.9841,0.9872,0.9922,0.9948,0.9976,1.0016,1.0036,1.0063,1.01,1.0129,1.0165,1.0197,1.024,1.0274,1.0283,1.0297,1.029,1.0289,1.0294,1.0326,1.0322,1.0279,1.0279,1.0279,1.0279,1.0279,1.0279,0.9792,0.9819,0.9847,0.9889,0.9922,0.9955,0.9975,1.0004,1.0033,1.0073,1.01,1.0129,1.0167,1.0204,1.0233,1.0245,1.0254,1.0243,1.0258,1.0287,1.0292,1.0297,1.0294,1.0245,1.0245,1.0225,1.0224,1.0224]},{"header":{"parameterUnit":"m.s-1","parameterCategory":1,"la1":30.2991,"la2":30.254,"lo1":-89.0895,"lo2":-89.0444,"dy":0.0017,"dx":0.0017,"nx":28,"ny":28,"refTime":"2024-06-29T03:00:00:Z","depth":0,"parameterNumber":3,"parameterNumberName":"V-component_of_WINDS"},"data":[0,0,0,0,0,0,0,0,0,0,0,0,0,0,0,0,0,0,0,0,0,0,0,0,0,0,0,0,0,0,0,0,0,0,0,0,0,0,0,0,0,0,0,0,0,0,0,0,0,0,0,0,0,0,0,0,0,0,4.6437,4.6437,0,4.6476,4.6477,4.6477,4.6418,4.6416,4.6414,4.6412,4.6449,4.6452,4.6455,0,0,0,0,0,0,0,0,0,0,0,0,0,4.6308,4.6311,4.6437,4.6438,4.6438,4.6476,4.6477,4.6477,4.6418,4.6416,4.6413,4.6411,4.6448,4.6451,4.6455,0,0,0,0,0,0,0,0,0,0,0,0,0,4.6358,4.6312,4.6437,4.6413,4.6411,4.6476,4.6477,4.6477,4.6419,4.6416,4.6413,4.641,4.6447,4.6451,4.6455,4.6544,0,0,4.6469,4.647,0,0,0,0,0,0,0,0,4.6355,4.6362,4.6416,4.6415,4.6413,4.6439,4.6445,4.65,4.642,4.6416,4.6412,4.6408,4.6448,4.6452,4.6466,4.6546,4.6547,4.6469,4.6472,4.6473,4.6475,0,0,0,0,0,0,0,4.6352,4.636,4.6452,4.6417,4.6415,4.64,4.6403,4.6455,4.6449,4.6416,4.6412,4.6417,4.6446,4.6462,4.6466,4.6548,4.6469,4.6473,4.6475,4.6477,4.6703,4.6706,0,0,0,0,0,0,4.6351,4.6358,4.6451,4.6454,4.6376,4.6405,4.6409,4.6434,4.6448,4.6447,4.642,4.6415,4.6456,4.6461,4.6467,4.6573,4.6473,4.6478,4.648,4.67,4.6704,4.6707,0,0,0,0,0,0,4.6349,4.636,4.645,4.6405,4.6415,4.641,4.6439,4.6436,4.6452,4.6451,4.6449,4.6437,4.6454,4.6461,4.6526,4.6573,4.648,4.6483,4.6696,4.6701,4.6706,4.6784,0,0,0,0,0,0,4.6345,4.636,4.6394,4.6406,4.6418,4.6508,4.6442,4.6439,4.646,4.6453,4.6467,4.6466,4.6452,4.652,4.653,4.6578,4.6487,4.6691,4.6698,4.6704,4.6777,4.6791,4.6803,0,0,0,0,0,4.6341,4.6413,4.6396,4.6407,4.646,4.6511,4.6518,4.6501,4.6464,4.6498,4.6498,4.6466,4.6567,4.6527,4.6538,4.6588,4.6688,4.6696,4.6704,4.6771,4.6789,4.6803,0,0,0,0,0,0,4.6405,4.6415,4.6395,4.6474,4.6492,4.6501,4.6543,4.6519,4.6548,4.654,4.6517,4.6521,4.659,4.6595,4.6551,4.6675,4.6621,4.6631,4.6669,4.6685,4.6698,4.6695,4.649,0,0,0,0,0,4.6429,4.6471,4.6476,4.6545,4.6555,4.6548,4.6569,4.6555,4.6573,4.658,4.6584,4.6602,4.6638,4.6661,4.6694,4.6778,4.678,4.6817,4.683,4.6841,4.685,4.6896,4.6912,4.6733,4.6732,4.6732,0,0,4.6478,4.6488,4.6515,4.6558,4.6571,4.6614,4.6555,4.6602,4.6634,4.6587,4.6648,4.6652,4.667,4.6745,4.6778,4.6752,4.6901,4.6851,4.6859,4.6863,4.6905,4.6922,4.6937,4.6738,4.6737,4.6736,0,0,4.6589,4.6601,4.666,4.6674,4.6695,4.669,4.6704,4.6717,4.6718,4.678,4.6746,4.6782,4.6844,4.6859,4.6875,4.6993,4.6965,4.7004,4.7072,4.7116,4.713,4.7143,4.7186,4.7201,4.7013,4.7013,4.7013,0,4.6646,4.6711,4.6693,4.6744,4.6763,4.6725,4.6784,4.6799,4.6828,4.6843,4.6812,4.689,4.69,4.6978,4.7007,4.702,4.7036,4.7002,4.713,4.7142,4.7154,4.7194,4.721,4.7018,4.7017,4.7017,4.7017,0,4.6781,4.6826,4.6871,4.6903,4.6928,4.6982,4.6973,4.7,4.6984,4.6982,4.7045,4.7056,4.709,4.7108,4.7092,4.7184,4.7167,4.7134,4.708,4.7176,4.7214,4.7229,4.7025,4.7023,4.7022,4.702,0,0,4.6932,4.6955,4.6972,4.6986,4.7007,4.7041,4.7094,4.7129,4.7153,4.7175,4.7219,4.7273,4.7243,4.7261,4.7246,4.7286,4.7379,4.7248,4.7248,4.7272,4.7482,4.7507,4.7526,4.7361,4.7364,4.7366,4.7481,0,4.7043,4.7137,4.7123,4.7212,4.7254,4.7219,4.7265,4.7282,4.7282,4.7317,4.7316,4.7355,4.7312,4.7323,4.736,4.736,4.7421,4.7352,4.7401,4.7403,4.7398,4.7545,4.7571,4.7679,4.7495,4.7498,4.75,0,4.7185,4.7215,4.7309,4.7324,4.7341,4.7383,4.7415,4.7449,4.7468,4.7465,4.7486,4.7464,4.7517,4.7463,4.7535,4.7488,4.7507,4.7511,4.7514,4.7518,4.7458,4.7553,4.7713,4.773,4.7523,4.7521,4.7519,0,4.7287,4.735,4.7415,4.7428,4.7447,4.7478,4.7487,4.7503,4.7526,4.7553,4.7568,4.76,4.7618,4.7644,4.7632,4.7593,4.7707,4.7651,4.7706,4.7706,4.7731,4.773,4.7897,4.7744,4.7743,4.7743,4.7743,0,4.7413,4.7472,4.7461,4.7501,4.7567,4.755,4.7615,4.7619,4.7634,4.7674,4.7645,4.7682,4.7664,4.7701,4.7691,4.7753,4.7761,4.776,4.7757,4.7763,4.7763,4.7775,4.7768,4.7747,4.7746,4.7745,4.7745,0,4.7538,4.7533,4.7601,4.7615,4.7619,4.7667,4.7678,4.7715,4.7713,4.7764,4.7775,4.7772,4.7813,4.7804,4.7849,4.7843,4.7921,4.7908,4.7915,4.7912,4.7967,4.7963,4.8148,4.8172,4.8003,4.8005,4.8006,0,4.7618,4.7663,4.7682,4.7708,4.772,4.7761,4.7784,4.7769,4.7795,4.7821,4.7855,4.7894,4.7925,4.7992,4.7994,4.8028,4.8016,4.8079,4.8021,4.8026,4.8018,4.8015,4.802,4.809,4.8092,4.8094,4.8095,0,4.7762,4.7758,4.7793,4.7829,4.7858,4.7885,4.7908,4.7931,4.7918,4.7948,4.7991,4.8015,4.8062,4.8101,4.8133,4.8142,4.8117,4.8113,4.8128,4.8135,4.8137,4.8137,4.7946,4.8109,4.8108,4.8107,4.8106,4.8105,4.7867,4.7906,4.7926,4.7967,4.7984,4.8007,4.8043,4.8047,4.8083,4.8121,4.811,4.8159,4.8177,4.8218,4.8231,4.8268,4.8244,4.8265,4.8271,4.8276,4.8284,4.8131,4.8274,4.8273,4.8273,4.8273,4.8272,0,4.801,4.8022,4.806,4.8095,4.8127,4.8102,4.8127,4.8156,4.82,4.822,4.8251,4.8301,4.8339,4.8344,4.838,4.841,4.8399,4.842,4.8417,4.842,4.8302,4.8286,4.8428,4.8428,4.8428,4.8427,4.8427,4.8427,4.8088,4.8153,4.8152,4.8225,4.8235,4.8284,4.8301,4.8322,4.8338,4.8396,4.8428,4.8432,4.8445,4.8483,4.8517,4.8517,4.8532,4.8557,4.8553,4.8443,4.8428,4.8413,4.8398,4.856,4.8561,4.8667,4.8668,4.8669]}]]